Regional Weather Roundup
Issued by NWS San Diego, CA

Home | Current Version | Previous Version | Text Only | Print | Product List | Glossary On
Versions: 1 2 3 4 5 6 7 8 9 10 11 12 13 14 15 16 17 18 19 20 21 22 23 24 25 26 27 28 29 30 31 32 33 34 35 36 37 38 39 40 41 42 43 44 45 46 47 48 49 50
000
ASUS46 KSGX 270310
RWRSGX

SAN DIEGO HOURLY WEATHER ROUNDUP
NATIONAL WEATHER SERVICE SAN DIEGO CA
700 PM PST MON JAN 26 2015

NOTE: "FAIR" INDICATES FEW OR NO CLOUDS BELOW 12,000 FEET WITH NO
SIGNIFICANT WEATHER AND/OR OBSTRUCTIONS TO VISIBILITY.

CAZ042-043-060-061-PZZ750-775-270400-

GREATER SAN DIEGO AREA

CITY           SKY/WX    TMP DP  RH WIND       PRES   REMARKS
LINDBERGH FLD  MOCLDY    61  48  62 NE7       30.07R
POINT LOMA       N/A     59  49  70 N8          N/A
NATIONAL CITY    N/A     61  51  69 CALM      30.07R
CHULA VISTA      N/A     60  53  78 CALM      29.99R
IMPERIAL BEACH MOCLDY    62  50  64 NE7       30.06R
BROWN FIELD    CLOUDY    58  50  75 NE8       30.06R
MIRAMAR MCAS   MOCLDY    56  48  74 NE8       30.06R
MONTGOMERY FLD PTCLDY    58  49  72 NE9       30.06R

$$

NORTH SAN DIEGO COUNTY

CITY           SKY/WX    TMP DP  RH WIND       PRES   REMARKS
CAMP PENDLETON MOCLDY    57  53  86 CALM      30.07R
OCEANSIDE AP   MOCLDY    57  53  86 CALM      30.06R
OCEANSIDE HBR    N/A     58  53  81 NE5       30.09R
VISTA            N/A     55  50  84 CALM      30.05R
CARLSBAD       MOCLDY    57  51  80 N3        30.06R
DEL MAR          N/A     55  51  86 CALM      30.08R
LA JOLLA SCRIP   N/A     58  50  73 CALM      30.04R
FALLBROOK        N/A     55  55 100 CALM      30.07R
ESCONDIDO        N/A     56  52  88 N1        30.07R
SAN MARCOS       N/A     55  49  81 CALM      30.05R
POWAY            N/A     55  52  89 CALM      30.08R

$$

EAST SAN DIEGO COUNTY

CITY           SKY/WX    TMP DP  RH WIND       PRES   REMARKS
RAMONA         MOCLDY    51  49  92 W6        30.07R
SANTEE LAKES     N/A     56  52  86 CALM      30.08R
LA MESA          N/A     58  51  78 NE3       30.01R
JAMUL            N/A     54  50  87 CALM      30.06R
DESCANSO N       N/A     53  47  80 E7        29.93R
MT. LAGUNA OBS   N/A     42  42 100 SE1       29.70
CAMPO            N/A     52  48  86 E16       30.04R

$$

ORANGE COUNTY AND THE LOS ANGELES BASIN

CITY           SKY/WX    TMP DP  RH WIND       PRES   REMARKS
JOHN WAYNE AP  LGT RAIN  61  52  72 E7        30.09R
LAGUNA BEACH     N/A     56  53  89 N5        30.04R
LAKE FOREST FR   N/A     53  49  87 CALM      29.98R
SANTA ANA        N/A     60  55  84 CALM      30.04R
HUNTINGTON BCH   N/A     58  55  89 CALM      30.10R
LOS ALAMITOS   LGT RAIN  59  55  88 E6        30.09R
FULLERTON      LGT RAIN  58  53  84 SE5       30.08R
LONG BEACH     RAIN      59  54  83 SE6       30.08R
L.A. AP        CLOUDY    59  52  77 S8        30.07R
L.A. DOWNTOWN  CLOUDY    60  53  77 CALM      30.07R

$$

THE INLAND EMPIRE

CITY           SKY/WX    TMP DP  RH WIND       PRES   REMARKS
CORONA         RAIN      55  55 100 CALM      30.08S FOG
CHINO          LGT RAIN  57  54  89 SW9       30.08R FOG
ONTARIO        LGT RAIN  58  54  86 CALM      30.07R FOG
SAN BERNARDINO CLOUDY    55  52  88 CALM      30.08R
RIVERSIDE AP   LGT RAIN  57  54  89 S3        30.07R
RIV CYN CREST    N/A     57  57 100 S1          N/A
MORENO VALLEY    N/A     55  55  99 CALM      29.26R
MARCH ARB      LGT RAIN  55  55 100 CALM      30.07R
HORSETHIEF CYN   N/A     54  51  87 CALM      29.99S
PERRIS           N/A     54  53  97 SE1         N/A
MENIFEE          N/A     56  55  97 CALM      30.13S
HEMET EAST       N/A     53  50  89 CALM      30.04S
FRENCH VALLEY  CLOUDY    54  52  94 CALM      30.07R
TEMECULA         N/A     56  55  97 CALM      30.04R

$$

SAN BERNARDINO AND RIVERSIDE COUNTY MOUNTAINS

CITY           SKY/WX    TMP DP  RH WIND       PRES   REMARKS
BIG BEAR AP    RAIN      37  37 100 CALM      30.13F
PINE COVE        N/A     44  41  91 SE3       29.97R

$$

SOUTHERN DESERT INCLUDING THE COACHELLA VALLEY

CITY           SKY/WX    TMP DP  RH WIND       PRES   REMARKS
PALM SPRINGS   CLOUDY    58  54  86 CALM      30.12R
PALM DESERT      N/A     58  55  88 CALM        N/A
THERMAL        LGT RAIN  58  55  90 CALM      30.10R
BLYTHE         LGT RAIN  55  52  89 N6        30.13R
IMPERIAL AP    CLOUDY    56  55  97 W5        30.10R
EL CENTRO NAS  CLOUDY    57  56  96 NW3       30.11R
YUMA AZ        CLOUDY    58  50  75 NE10      30.10R
MEXICALI       CLOUDY    57  55  94 NW3       30.10

$$

UPPER DESERT

CITY           SKY/WX    TMP DP  RH WIND       PRES   REMARKS
VICTORVILLE AP CLOUDY    50  46  87 CALM      30.09F
HESPERIA         N/A     49  47  91 N3        30.20R
APPLE VALLEY     N/A     50  46  86 CALM      30.14R
PALMDALE       CLOUDY    51  50  96 N12       30.09R
LANCASTER      CLOUDY    50  47  89 NE17      30.10R
EDWARDS AFB    CLOUDY    52  52  99 NE14      30.09R
DAGGETT        LGT RAIN  52  49  89 N12       30.12R
29 PALMS N     CLOUDY    52  49  89 E12       30.19R
NEEDLES        LGT RAIN  57  50  77 W6        30.13R

$$

REGIONAL REPORTS

CITY           SKY/WX    TMP DP  RH WIND       PRES   REMARKS
SANTA BARBARA  CLOUDY    65  46  50 E8        30.03S
SANDBERG       LGT RAIN  47  43  86 E10G17    30.10F VSB 3/4
MT. WILSON       N/A    N/A N/A N/A MISG        N/A
LAS VEGAS NV   LGT RAIN  57  47  69 SW12      30.09R
PHOENIX AZ     LGT RAIN  63  36  36 CALM      30.11R
TIJUANA        MOCLDY    59  48  67 N9        30.08R

$$

OFFSHORE ISLANDS

CITY           SKY/WX    TMP DP  RH WIND       PRES   REMARKS
CATALINA ARPT  LGT RAIN  53  43  68 N3        30.09S
SAN NICOLAS IS CLOUDY   N/A N/A N/A SW13      30.04R

$$

MARINE AND OFFSHORE BUOY REPORTS

STATION/POSITION SKY/WX   TEMP    WIND        PRES    SWELL
                          AIR SEA DIR/SP/G            HT/PER/DIR
                          (F)     (DEG/KT/KT) (MB)    (FT/S/D)
TANNER BANKS               61 62  200/ 12/ 14 1016.5R   7/280/13
S CLEMENTE BASIN           63 63  100/  6/  6 1017.8R   7/280/14
SAN NICOLAS IS.               62                N/A     5/280/14
SO. S. ROSA ISLA           64 62   50/  8/ 14 1016.0R   8/15
W. S. BARBARA CH           63 60  100/  6/ 12 1016.2R   7/270/15
S. MONICA BASIN            61 62   90/ 16/ 17 1018.0R   3/270/15
S PEDRO CHANNEL               62                N/A     3/270/14
DANA POINT                    62                N/A     2/270/14
CMP PENDLETON NS              62                N/A     3/240/15
OCEANSIDE OFFSHR              62                N/A     3/260/13
TORREY PINES OTR              62                N/A     3/260/13
LA JOLLA 1                 61 62   70/  6/  8 1017.9R
MISSION BAY BUOY              62                N/A     3/260/14
SAN DIEGO BAY                 62              1018.3R
POINT LOMA SOUTH              62                N/A     3/260/13

$$




USA.gov is the U.S. government's official web portal to all federal, state and local government web resources and services.